Time,TemperatureF,DewpointF,PressureIn,WindDirection,WindDirectionDegrees,WindSpeedMPH,WindSpeedGustMPH,Humidity,HourlyPrecipIn,Conditions,Clouds,dailyrainin,SolarRadiationWatts/m^2,SoftwareType,DateUTC
2013-06-02 00:01:00,50.0,26.0,-100.00,North,6,6.0,11.0,39,0.00,,,0.00,0.000000,,2013-06-02 06:01:00,
2013-06-02 00:32:00,51.0,27.0,-100.00,NNE,20,3.0,9.0,39,0.00,,,0.00,0.000000,,2013-06-02 06:32:00,
2013-06-02 00:42:00,51.0,27.0,-100.00,NNE,20,3.0,9.0,39,0.00,,,0.00,0.000000,,2013-06-02 06:42:00,
2013-06-02 00:52:00,51.0,27.0,-100.00,NNE,20,3.0,9.0,39,0.00,,,0.00,0.000000,,2013-06-02 06:52:00,
2013-06-02 01:01:00,51.0,27.0,-100.00,NNE,20,3.0,9.0,39,0.00,,,0.00,0.000000,,2013-06-02 07:01:00,
2013-06-02 01:32:00,48.0,26.0,-100.00,North,349,4.0,5.0,42,0.00,,,0.00,0.000000,,2013-06-02 07:32:00,
2013-06-02 01:42:00,48.0,26.0,-100.00,North,349,4.0,5.0,42,0.00,,,0.00,0.000000,,2013-06-02 07:42:00,
2013-06-02 01:52:00,48.0,26.0,-100.00,North,349,4.0,5.0,42,0.00,,,0.00,0.000000,,2013-06-02 07:52:00,
2013-06-02 02:01:00,48.0,26.0,-100.00,North,349,4.0,5.0,42,0.00,,,0.00,0.000000,,2013-06-02 08:01:00,
2013-06-02 02:32:00,48.0,27.0,-100.00,SSE,157,4.0,6.0,44,0.00,,,0.00,0.000000,,2013-06-02 08:32:00,
2013-06-02 02:42:00,48.0,27.0,-100.00,SSE,157,4.0,6.0,44,0.00,,,0.00,0.000000,,2013-06-02 08:42:00,
2013-06-02 02:52:00,48.0,27.0,-100.00,SSE,157,4.0,6.0,44,0.00,,,0.00,0.000000,,2013-06-02 08:52:00,
2013-06-02 03:01:00,48.0,27.0,-100.00,SSE,157,4.0,6.0,44,0.00,,,0.00,0.000000,,2013-06-02 09:01:00,
2013-06-02 03:33:00,45.0,27.0,-100.00,NNE,18,2.0,7.0,48,0.00,,,0.00,0.000000,,2013-06-02 09:33:00,
2013-06-02 03:43:00,45.0,27.0,-100.00,NNE,18,2.0,7.0,48,0.00,,,0.00,0.000000,,2013-06-02 09:43:00,
2013-06-02 03:53:00,45.0,27.0,-100.00,NNE,18,2.0,7.0,48,0.00,,,0.00,0.000000,,2013-06-02 09:53:00,
2013-06-02 04:02:00,45.0,27.0,-100.00,NNE,18,2.0,7.0,48,0.00,,,0.00,0.000000,,2013-06-02 10:02:00,
2013-06-02 04:33:00,45.0,27.0,-100.00,North,8,5.0,6.0,50,0.00,,,0.00,0.000000,,2013-06-02 10:33:00,
2013-06-02 04:42:00,45.0,27.0,-100.00,North,8,5.0,6.0,50,0.00,,,0.00,0.000000,,2013-06-02 10:42:00,
2013-06-02 04:52:00,45.0,27.0,-100.00,North,8,5.0,6.0,50,0.00,,,0.00,0.000000,,2013-06-02 10:52:00,
2013-06-02 05:02:00,45.0,27.0,-100.00,North,8,5.0,6.0,50,0.00,,,0.00,0.000000,,2013-06-02 11:02:00,
2013-06-02 05:32:00,45.0,27.0,-100.00,NW,308,3.0,9.0,50,0.00,,,0.00,0.000000,,2013-06-02 11:32:00,
2013-06-02 05:42:00,45.0,27.0,-100.00,NW,308,3.0,9.0,50,0.00,,,0.00,0.000000,,2013-06-02 11:42:00,
2013-06-02 05:52:00,45.0,27.0,-100.00,NW,308,3.0,9.0,50,0.00,,,0.00,0.000000,,2013-06-02 11:52:00,
2013-06-02 06:01:00,45.0,27.0,-100.00,NW,308,3.0,9.0,50,0.00,,,0.00,0.000000,,2013-06-02 12:01:00,
2013-06-02 06:32:00,43.0,29.0,-100.00,NNW,346,2.0,10.0,57,0.00,,,0.00,2.000000,,2013-06-02 12:32:00,
2013-06-02 06:42:00,43.0,29.0,-100.00,NNW,346,2.0,10.0,57,0.00,,,0.00,2.000000,,2013-06-02 12:42:00,
2013-06-02 06:52:00,43.0,29.0,-100.00,NNW,346,2.0,10.0,57,0.00,,,0.00,2.000000,,2013-06-02 12:52:00,
2013-06-02 07:01:00,43.0,29.0,-100.00,NNW,346,2.0,10.0,57,0.00,,,0.00,2.000000,,2013-06-02 13:01:00,
2013-06-02 07:32:00,44.0,31.0,-100.00,SSW,209,4.0,5.0,61,0.00,,,0.00,42.000000,,2013-06-02 13:32:00,
2013-06-02 07:42:00,44.0,31.0,-100.00,SSW,209,4.0,5.0,61,0.00,,,0.00,42.000000,,2013-06-02 13:42:00,
2013-06-02 07:52:00,44.0,31.0,-100.00,SSW,209,4.0,5.0,61,0.00,,,0.00,42.000000,,2013-06-02 13:52:00,
2013-06-02 08:01:00,44.0,31.0,-100.00,SSW,209,4.0,5.0,61,0.00,,,0.00,42.000000,,2013-06-02 14:01:00,
2013-06-02 08:32:00,44.0,30.0,-100.00,East,84,4.0,6.0,58,0.00,,,0.00,56.000000,,2013-06-02 14:32:00,
2013-06-02 08:42:00,44.0,30.0,-100.00,East,84,4.0,6.0,58,0.00,,,0.00,56.000000,,2013-06-02 14:42:00,
2013-06-02 08:52:00,44.0,30.0,-100.00,East,84,4.0,6.0,58,0.00,,,0.00,56.000000,,2013-06-02 14:52:00,
2013-06-02 09:01:00,44.0,30.0,-100.00,East,84,4.0,6.0,58,0.00,,,0.00,56.000000,,2013-06-02 15:01:00,
2013-06-02 09:33:00,42.0,35.0,-100.00,WSW,244,5.0,11.0,75,0.02,,,0.02,57.000000,,2013-06-02 15:33:00,
2013-06-02 09:43:00,42.0,35.0,-100.00,WSW,244,5.0,11.0,75,0.02,,,0.02,57.000000,,2013-06-02 15:43:00,
2013-06-02 09:53:00,42.0,35.0,-100.00,WSW,244,5.0,11.0,75,0.02,,,0.02,57.000000,,2013-06-02 15:53:00,
2013-06-02 10:03:00,42.0,35.0,-100.00,WSW,244,5.0,11.0,75,0.02,,,0.02,57.000000,,2013-06-02 16:03:00,
2013-06-02 10:33:00,46.0,38.0,-100.00,North,10,6.0,9.0,73,0.00,,,0.02,209.000000,,2013-06-02 16:33:00,
2013-06-02 10:42:00,46.0,38.0,-100.00,North,10,6.0,9.0,73,0.00,,,0.02,209.000000,,2013-06-02 16:42:00,
2013-06-02 10:52:00,46.0,38.0,-100.00,North,10,6.0,9.0,73,0.00,,,0.02,209.000000,,2013-06-02 16:52:00,
2013-06-02 11:02:00,46.0,38.0,-100.00,North,10,6.0,9.0,73,0.00,,,0.02,209.000000,,2013-06-02 17:02:00,
2013-06-02 11:32:00,49.0,41.0,-100.00,NW,321,5.0,10.0,73,0.00,,,0.02,426.000000,,2013-06-02 17:32:00,
2013-06-02 11:42:00,49.0,41.0,-100.00,NW,321,5.0,10.0,73,0.00,,,0.02,426.000000,,2013-06-02 17:42:00,
2013-06-02 11:52:00,49.0,41.0,-100.00,NW,321,5.0,10.0,73,0.00,,,0.02,426.000000,,2013-06-02 17:52:00,
2013-06-02 12:01:00,49.0,41.0,-100.00,NW,321,5.0,10.0,73,0.00,,,0.02,426.000000,,2013-06-02 18:01:00,
2013-06-02 12:32:00,46.0,39.0,-100.00,NW,313,13.0,18.0,75,0.00,,,0.02,293.000000,,2013-06-02 18:32:00,
2013-06-02 12:42:00,46.0,39.0,-100.00,NW,313,13.0,18.0,75,0.00,,,0.02,293.000000,,2013-06-02 18:42:00,
2013-06-02 12:52:00,46.0,39.0,-100.00,NW,313,13.0,18.0,75,0.00,,,0.02,293.000000,,2013-06-02 18:52:00,
2013-06-02 13:01:00,46.0,39.0,-100.00,NW,313,13.0,18.0,75,0.00,,,0.02,293.000000,,2013-06-02 19:01:00,
2013-06-02 13:32:00,40.0,37.0,-100.00,WSW,257,8.0,24.0,90,0.03,,,0.05,116.000000,,2013-06-02 19:32:00,
2013-06-02 13:42:00,40.0,37.0,-100.00,WSW,257,8.0,24.0,90,0.03,,,0.05,116.000000,,2013-06-02 19:42:00,
2013-06-02 13:52:00,40.0,37.0,-100.00,WSW,257,8.0,24.0,90,0.03,,,0.05,116.000000,,2013-06-02 19:52:00,
2013-06-02 14:02:00,40.0,37.0,-100.00,WSW,257,8.0,24.0,90,0.03,,,0.05,116.000000,,2013-06-02 20:02:00,
2013-06-02 14:32:00,38.0,37.0,-100.00,North,351,11.0,14.0,95,0.03,,,0.08,151.000000,,2013-06-02 20:32:00,
2013-06-02 14:42:00,38.0,37.0,-100.00,North,351,11.0,14.0,95,0.03,,,0.08,151.000000,,2013-06-02 20:42:00,
2013-06-02 14:52:00,38.0,37.0,-100.00,North,351,11.0,14.0,95,0.03,,,0.08,151.000000,,2013-06-02 20:52:00,
2013-06-02 15:01:00,38.0,37.0,-100.00,North,351,11.0,14.0,95,0.03,,,0.08,151.000000,,2013-06-02 21:01:00,
2013-06-02 15:33:00,40.0,39.0,-100.00,ESE,105,4.0,12.0,96,0.04,,,0.12,142.000000,,2013-06-02 21:33:00,
2013-06-02 15:42:00,40.0,39.0,-100.00,ESE,105,4.0,12.0,96,0.04,,,0.12,142.000000,,2013-06-02 21:42:00,
2013-06-02 15:53:00,40.0,39.0,-100.00,ESE,105,4.0,12.0,96,0.04,,,0.12,142.000000,,2013-06-02 21:53:00,
2013-06-02 16:02:00,40.0,39.0,-100.00,ESE,105,4.0,12.0,96,0.04,,,0.12,142.000000,,2013-06-02 22:02:00,
2013-06-02 16:33:00,42.0,40.0,-100.00,NE,35,4.0,8.0,91,0.00,,,-99.99,307.000000,,2013-06-02 22:33:00,
2013-06-02 16:42:00,42.0,40.0,-100.00,NE,35,4.0,8.0,91,0.00,,,-99.99,307.000000,,2013-06-02 22:42:00,
2013-06-02 16:52:00,42.0,40.0,-100.00,NE,35,4.0,8.0,91,0.00,,,-99.99,307.000000,,2013-06-02 22:52:00,
2013-06-02 17:02:00,42.0,40.0,-100.00,NE,35,4.0,8.0,91,0.00,,,-99.99,307.000000,,2013-06-02 23:02:00,
2013-06-02 17:32:00,40.0,38.0,-100.00,NW,316,14.0,21.0,91,0.00,,,0.12,276.000000,,2013-06-02 23:32:00,
2013-06-02 17:42:00,40.0,38.0,-100.00,NW,316,14.0,21.0,91,0.00,,,0.12,276.000000,,2013-06-02 23:42:00,
2013-06-02 17:52:00,40.0,38.0,-100.00,NW,316,14.0,21.0,91,0.00,,,0.12,276.000000,,2013-06-02 23:52:00,
2013-06-02 18:01:00,40.0,38.0,-100.00,NW,316,14.0,21.0,91,0.00,,,0.12,276.000000,,2013-06-03 00:01:00,
2013-06-02 18:32:00,38.0,36.0,-100.00,NNW,328,10.0,21.0,94,0.00,,,0.12,74.000000,,2013-06-03 00:32:00,
2013-06-02 18:42:00,38.0,36.0,-100.00,NNW,328,10.0,21.0,94,0.00,,,0.12,74.000000,,2013-06-03 00:42:00,
2013-06-02 18:52:00,38.0,36.0,-100.00,NNW,328,10.0,21.0,94,0.00,,,0.12,74.000000,,2013-06-03 00:52:00,
2013-06-02 19:01:00,38.0,36.0,-100.00,NNW,328,10.0,21.0,94,0.00,,,0.12,74.000000,,2013-06-03 01:01:00,
2013-06-02 19:32:00,38.0,36.0,-100.00,WNW,300,6.0,12.0,91,0.00,,,0.12,51.000000,,2013-06-03 01:32:00,
2013-06-02 19:42:00,38.0,36.0,-100.00,WNW,300,6.0,12.0,91,0.00,,,0.12,51.000000,,2013-06-03 01:42:00,
2013-06-02 19:52:00,38.0,36.0,-100.00,WNW,300,6.0,12.0,91,0.00,,,0.12,51.000000,,2013-06-03 01:52:00,
2013-06-02 20:02:00,38.0,36.0,-100.00,WNW,300,6.0,12.0,91,0.00,,,0.12,51.000000,,2013-06-03 02:02:00,
2013-06-02 20:32:00,37.0,36.0,-100.00,WSW,246,3.0,9.0,95,0.00,,,0.12,102.000000,,2013-06-03 02:32:00,
2013-06-02 20:42:00,37.0,36.0,-100.00,WSW,246,3.0,9.0,95,0.00,,,0.12,102.000000,,2013-06-03 02:42:00,
2013-06-02 20:52:00,37.0,36.0,-100.00,WSW,246,3.0,9.0,95,0.00,,,0.12,102.000000,,2013-06-03 02:52:00,
2013-06-02 21:02:00,37.0,36.0,-100.00,WSW,246,3.0,9.0,95,0.00,,,0.12,102.000000,,2013-06-03 03:02:00,
2013-06-02 21:33:00,37.0,35.0,-100.00,South,180,1.0,7.0,91,0.00,,,0.12,12.000000,,2013-06-03 03:33:00,
2013-06-02 21:43:00,37.0,35.0,-100.00,South,180,1.0,7.0,91,0.00,,,0.12,12.000000,,2013-06-03 03:43:00,
2013-06-02 21:53:00,37.0,35.0,-100.00,South,180,1.0,7.0,91,0.00,,,0.12,12.000000,,2013-06-03 03:53:00,
2013-06-02 22:02:00,37.0,35.0,-100.00,South,180,1.0,7.0,91,0.00,,,0.12,12.000000,,2013-06-03 04:02:00,
2013-06-02 22:33:00,35.0,34.0,-100.00,South,175,4.0,21.0,98,0.00,,,0.12,0.000000,,2013-06-03 04:33:00,
2013-06-02 22:42:00,35.0,34.0,-100.00,South,175,4.0,21.0,98,0.00,,,0.12,0.000000,,2013-06-03 04:42:00,
2013-06-02 22:53:00,35.0,34.0,-100.00,South,175,4.0,21.0,98,0.00,,,0.12,0.000000,,2013-06-03 04:53:00,
2013-06-02 23:02:00,35.0,34.0,-100.00,South,175,4.0,21.0,98,0.00,,,0.12,0.000000,,2013-06-03 05:02:00,
2013-06-02 23:32:00,36.0,34.0,-100.00,SW,229,3.0,6.0,91,0.00,,,0.12,0.000000,,2013-06-03 05:32:00,
2013-06-02 23:43:00,36.0,34.0,-100.00,SW,229,3.0,6.0,91,0.00,,,0.12,0.000000,,2013-06-03 05:43:00,
2013-06-02 23:52:00,36.0,34.0,-100.00,SW,229,3.0,6.0,91,0.00,,,0.12,0.000000,,2013-06-03 05:52:00,